Skip Page Navigation
NASA JPL Caltech
NASA Logo - Jet Propulsion Laboratory + View the NASA Portal
+ Center for Near-Earth Object Studies
JPL Home Earth Solar System Stars & Galaxies Technology
JPL Solar System Dynamics
BODIES ORBITS EPHEMERIDES TOOLS PHYSICAL DATA DISCOVERY FAQ SITE MAP
JPL Small-Body Database Browser
Search: [ help ]  
362395 (2010 OP64)
Classification: Outer Main-belt Asteroid          SPK-ID: 2362395
Ephemeris | Orbit Diagram | Orbital Elements | Mission Design | Physical Parameters | Discovery Circumstances | Close-Approach Data ]

[ show orbit diagram ]
Orbital Elements at Epoch 2459200.5 (2020-Dec-17.0) TDB
Reference: JPL 18 (heliocentric ecliptic J2000)
 Element Value Uncertainty (1-sigma)   Units 
e .2105667237921373 4.8562e-08  
a 3.223059441718063 5.1384e-08 au
q 2.544390374488175 1.6117e-07 au
i 11.47705490624974 7.6198e-06 deg
node 224.2373046433264 2.7254e-05 deg
peri 261.0880218748766 3.2214e-05 deg
M 198.5281686745197 1.9301e-05 deg
tp 2460148.471257274771
(2023-Jul-22.97125727)
0.00012509 TDB
period 2113.493417505232
5.79
5.0542e-05
1.384e-07
d
yr
n .1703341004132126 4.0734e-09 deg/d
Q 3.90172850894795 6.2204e-08 au
  Orbit Determination Parameters
   # obs. used (total)      286  
   data-arc span      4842 days (13.26 yr)  
   first obs. used      2007-04-11  
   last obs. used      2020-07-13  
   planetary ephem.      DE441  
   SB-pert. ephem.      SB441-N16  
   condition code      0  
   norm. resid. RMS      .53146  
   source      ORB  
   producer      Otto Matic  
   solution date      2021-Apr-14 09:39:21  

Additional Information
 Earth MOID = 1.59082 au 
 Jupiter MOID = 1.50845 au 
 T_jup = 3.122 
[ show covariance matrix ]

Ephemeris | Orbit Diagram | Orbital Elements | Mission Design | Physical Parameters | Discovery Circumstances | Close-Approach Data ]

Physical Parameter Table
Parameter Symbol Value Units Sigma Reference Notes
absolute magnitude H 15.56   n/a E2021B25  
diameter diameter 5.501 km 0.290 urn:nasa:pds:neowise_diameters_albedos::2.0[mainbelt] (http://adsabs.harvard.edu/abs/2011ApJ...741...68M)  
geometric albedo albedo 0.049   0.016 urn:nasa:pds:neowise_diameters_albedos::2.0[mainbelt] (http://adsabs.harvard.edu/abs/2011ApJ...741...68M)  

362395 (2010 OP64)          Discovered 2007-Apr-11 by Spacewatch at Kitt Peak
Reference: Last Updated: 2013-04-29

[ show close-approach data ]
Ephemeris | Orbit Diagram | Orbital Elements | Mission Design | Physical Parameters | Discovery Circumstances | Close-Approach Data ]
ABOUT SSD CREDITS/AWARDS PRIVACY/COPYRIGHT GLOSSARY LINKS
FirstGov 2021-Jun-14 11:17 UT
(server date/time)  
NASA Home Page
Site Manager:   Ryan S. Park
Webmaster  Alan B. Chamberlin